sat.trackr.live / text

‹ back to catalog

STARLINK-34905

NORAD 65202 · 2025-176E

PAYLOAD ACTIVE UNKNOWN

§ Identity

Operator
Country
US
Launch date
2025-08-14
Launch site
AFETR
Launch vehicle
Mass (kg)
RCS (m²)

Purposes: comms

External: N2YO · Heavens-Above · Gunter

§ Orbital elements

Epoch: 2026-09-20T11:30:38.482848Z

Period
93.85 min
Inclination
53.1602°
Eccentricity
0.0001190
Mean motion
15.34401581 rev/d
Perigee alt
461.9 km
Apogee alt
463.5 km
Semi-major
6,840.8 km
B*
5.7551e-4
RAAN
323.6969°
Arg perigee
92.9422°
Mean anomaly
267.1717°
Rev number
6,300

§ Raw data

STARLINK-349051 65202U 25176E   26263.47961207  .00019119  00000+0  57551-3 0  99972 65202  53.1602 323.6969 0001190  92.9422 267.1717 15.34401581 63003

JSON: /api/v1/satellites/65202 · /tle

For live sub-satellite position, see the globe view (requires WebGL).

§ Visibility from observer

Set your observer location to see the next 7 days of passes ≥ 10°. The values pass through the URL so the page stays shareable.

No JS? Fill the form by hand. The geolocation button needs JavaScript.